Time,TemperatureF,DewpointF,PressureIn,WindDirection,WindDirectionDegrees,WindSpeedMPH,WindSpeedGustMPH,Humidity,HourlyPrecipIn,Conditions,Clouds,dailyrainin,SoftwareType,DateUTC
2013-06-24 00:02:00,73.0,71.0,30.01,WNW,285,0.0,0.0,92,-99.99,,,-99.99,,2013-06-24 04:02:00,
2013-06-24 00:12:00,73.0,71.0,30.01,SE,133,1.0,1.0,93,-99.99,,,-99.99,,2013-06-24 04:12:00,
2013-06-24 00:22:00,73.0,71.0,30.02,SE,133,0.0,1.0,93,-99.99,,,-99.99,,2013-06-24 04:22:00,
2013-06-24 00:33:00,73.0,71.0,30.02,South,178,3.0,3.0,93,-99.99,,,-99.99,,2013-06-24 04:33:00,
2013-06-24 00:43:00,72.0,70.0,30.03,South,178,0.0,0.0,95,-99.99,,,-99.99,,2013-06-24 04:43:00,
2013-06-24 00:52:00,72.0,71.0,30.03,South,178,0.0,1.0,96,-99.99,,,-99.99,,2013-06-24 04:52:00,
2013-06-24 01:02:00,71.0,70.0,30.03,SE,144,0.0,0.0,96,-99.99,,,-99.99,,2013-06-24 05:02:00,
2013-06-24 01:12:00,71.0,70.0,30.03,SE,144,0.0,0.0,98,-99.99,,,-99.99,,2013-06-24 05:12:00,
2013-06-24 01:22:00,70.0,70.0,30.03,SE,144,0.0,1.0,100,-99.99,,,-99.99,,2013-06-24 05:22:00,
2013-06-24 01:35:00,70.0,70.0,30.02,SE,144,0.0,1.0,100,-99.99,,,-99.99,,2013-06-24 05:35:00,
2013-06-24 01:46:00,70.0,70.0,30.02,SE,144,0.0,0.0,100,-99.99,,,-99.99,,2013-06-24 05:46:00,
2013-06-24 01:53:00,69.0,69.0,30.02,SE,145,0.0,2.0,100,-99.99,,,-99.99,,2013-06-24 05:53:00,
2013-06-24 02:08:00,69.0,69.0,30.03,SE,144,0.0,2.0,100,-99.99,,,-99.99,,2013-06-24 06:08:00,
2013-06-24 02:14:00,69.0,69.0,30.03,SE,144,0.0,0.0,100,-99.99,,,-99.99,,2013-06-24 06:14:00,
2013-06-24 02:24:00,69.0,69.0,30.03,SE,145,0.0,0.0,100,-99.99,,,-99.99,,2013-06-24 06:24:00,
2013-06-24 02:37:00,69.0,69.0,30.02,SE,144,0.0,0.0,100,-99.99,,,-99.99,,2013-06-24 06:37:00,
2013-06-24 02:45:00,69.0,69.0,30.02,SE,144,0.0,2.0,100,-99.99,,,-99.99,,2013-06-24 06:45:00,
2013-06-24 02:52:00,69.0,69.0,30.02,SE,144,0.0,0.0,100,-99.99,,,-99.99,,2013-06-24 06:52:00,
2013-06-24 03:05:00,68.0,68.0,30.03,SE,144,0.0,0.0,100,-99.99,,,-99.99,,2013-06-24 07:05:00,
2013-06-24 03:14:00,68.0,68.0,30.03,SE,144,0.0,0.0,100,-99.99,,,-99.99,,2013-06-24 07:14:00,
2013-06-24 03:37:00,68.0,68.0,30.03,SE,144,0.0,0.0,100,-99.99,,,-99.99,,2013-06-24 07:37:00,
2013-06-24 03:47:00,68.0,68.0,30.03,SE,144,0.0,1.0,100,-99.99,,,-99.99,,2013-06-24 07:47:00,
2013-06-24 03:54:00,68.0,68.0,30.01,SE,145,0.0,0.0,100,-99.99,,,-99.99,,2013-06-24 07:54:00,
2013-06-24 04:04:00,68.0,68.0,30.01,SE,145,0.0,2.0,100,-99.99,,,-99.99,,2013-06-24 08:04:00,
2013-06-24 04:14:00,68.0,68.0,30.01,SE,144,0.0,1.0,100,-99.99,,,-99.99,,2013-06-24 08:14:00,
2013-06-24 04:26:00,68.0,68.0,30.01,SE,127,0.0,2.0,100,-99.99,,,-99.99,,2013-06-24 08:26:00,
2013-06-24 04:35:00,68.0,68.0,30.01,ESE,121,1.0,3.0,100,-99.99,,,-99.99,,2013-06-24 08:35:00,
2013-06-24 04:46:00,68.0,68.0,30.01,SSE,162,3.0,5.0,100,-99.99,,,-99.99,,2013-06-24 08:46:00,
2013-06-24 05:06:00,69.0,69.0,29.99,ESE,112,1.0,2.0,100,-99.99,,,-99.99,,2013-06-24 09:06:00,
2013-06-24 05:15:00,69.0,69.0,29.99,East,96,4.0,5.0,100,-99.99,,,-99.99,,2013-06-24 09:15:00,
2013-06-24 05:26:00,69.0,69.0,29.99,SE,127,0.0,5.0,100,-99.99,,,-99.99,,2013-06-24 09:26:00,
2013-06-24 05:37:00,69.0,69.0,30.00,SE,127,1.0,2.0,100,-99.99,,,-99.99,,2013-06-24 09:37:00,
2013-06-24 05:47:00,69.0,69.0,30.00,ESE,102,0.0,0.0,100,-99.99,,,-99.99,,2013-06-24 09:47:00,
2013-06-24 05:55:00,69.0,69.0,30.00,ESE,102,0.0,0.0,100,-99.99,,,-99.99,,2013-06-24 09:55:00,
2013-06-24 06:05:00,69.0,69.0,30.01,ESE,102,0.0,0.0,100,-99.99,,,-99.99,,2013-06-24 10:05:00,
2013-06-24 06:14:00,69.0,69.0,30.01,ESE,109,0.0,1.0,100,-99.99,,,-99.99,,2013-06-24 10:14:00,
2013-06-24 06:24:00,69.0,69.0,30.01,SSE,165,2.0,3.0,100,-99.99,,,-99.99,,2013-06-24 10:24:00,
2013-06-24 06:37:00,68.0,68.0,30.01,South,169,0.0,2.0,100,-99.99,,,-99.99,,2013-06-24 10:37:00,
2013-06-24 06:49:00,69.0,69.0,30.01,South,169,0.0,1.0,100,-99.99,,,-99.99,,2013-06-24 10:49:00,
2013-06-24 06:54:00,69.0,69.0,30.01,South,169,0.0,0.0,100,-99.99,,,-99.99,,2013-06-24 10:54:00,
2013-06-24 07:03:00,69.0,69.0,30.01,South,169,0.0,0.0,100,-99.99,,,-99.99,,2013-06-24 11:03:00,
2013-06-24 07:29:00,69.0,69.0,30.01,SE,128,0.0,2.0,100,-99.99,,,-99.99,,2013-06-24 11:29:00,
2013-06-24 07:34:00,69.0,69.0,30.02,SE,128,0.0,1.0,100,-99.99,,,-99.99,,2013-06-24 11:34:00,
2013-06-24 07:46:00,69.0,69.0,30.02,SE,128,0.0,0.0,100,-99.99,,,-99.99,,2013-06-24 11:46:00,
2013-06-24 08:05:00,70.0,70.0,30.04,South,179,0.0,0.0,100,-99.99,,,-99.99,,2013-06-24 12:05:00,
2013-06-24 08:16:00,71.0,71.0,30.04,SSE,168,0.0,2.0,100,-99.99,,,-99.99,,2013-06-24 12:16:00,
2013-06-24 08:23:00,72.0,72.0,30.04,South,182,2.0,5.0,100,-99.99,,,-99.99,,2013-06-24 12:23:00,
2013-06-24 08:36:00,72.0,72.0,30.04,ESE,113,1.0,5.0,100,-99.99,,,-99.99,,2013-06-24 12:36:00,
2013-06-24 08:53:00,73.0,73.0,30.04,NW,313,2.0,6.0,100,-99.99,,,-99.99,,2013-06-24 12:53:00,
2013-06-24 09:06:00,74.0,73.0,30.04,WSW,257,2.0,3.0,98,-99.99,,,-99.99,,2013-06-24 13:06:00,
2013-06-24 09:43:00,76.0,72.0,30.06,NW,326,2.0,4.0,86,-99.99,,,-99.99,,2013-06-24 13:43:00,
2013-06-24 10:37:00,78.0,71.0,30.07,West,281,1.0,8.0,80,-99.99,,,-99.99,,2013-06-24 14:37:00,
2013-06-24 10:45:00,78.0,71.0,30.07,WNW,285,6.0,6.0,80,-99.99,,,-99.99,,2013-06-24 14:45:00,
2013-06-24 10:56:00,78.0,71.0,30.07,West,275,6.0,6.0,80,-99.99,,,-99.99,,2013-06-24 14:56:00,
2013-06-24 11:54:00,81.0,72.0,30.06,West,272,2.0,8.0,75,-99.99,,,-99.99,,2013-06-24 15:54:00,
2013-06-24 13:35:00,83.0,73.0,30.03,North,349,0.0,1.0,71,-99.99,,,-99.99,,2013-06-24 17:35:00,
2013-06-24 14:46:00,83.0,73.0,30.00,SSE,152,2.0,6.0,72,-99.99,,,-99.99,,2013-06-24 18:46:00,
2013-06-24 15:06:00,83.0,70.0,29.99,ESE,117,5.0,6.0,66,-99.99,,,-99.99,,2013-06-24 19:06:00,
2013-06-24 15:37:00,84.0,71.0,29.97,SSW,199,2.0,11.0,65,-99.99,,,-99.99,,2013-06-24 19:37:00,
2013-06-24 16:45:00,84.0,67.0,29.97,SSE,148,2.0,5.0,57,-99.99,,,-99.99,,2013-06-24 20:45:00,
2013-06-24 17:46:00,84.0,70.0,29.95,SE,133,3.0,6.0,62,-99.99,,,-99.99,,2013-06-24 21:46:00,
2013-06-24 17:53:00,84.0,70.0,29.95,WNW,284,3.0,5.0,63,-99.99,,,-99.99,,2013-06-24 21:53:00,
2013-06-24 22:36:00,66.0,66.0,29.93,ESE,107,0.0,3.0,100,-99.99,,,-99.99,,2013-06-25 02:36:00,